Lapse_Rate
6.1 6.2 6.3 6.3 6.5 6.5 6.5 6.2 6.2 6.2 6.1 6.0 5.8 5.8 5.8 5.7 5.4 5.3 5.2 5.0 5.5 5.8 6.5 7.0 7.2 7.1 6.9 7.0 6.9 6.7 6.4 6.5 6.3 6.0 6.4 6.3 6.1 5.8 5.7 5.4 5.7 5.9 5.9
6.1 6.2 6.3 6.3 6.3 6.3 6.3 6.1 6.0 5.9 5.9 5.9 5.6 5.5 5.5 5.6 5.5 5.4 5.2 5.0 5.1 5.5 6.2 6.5 6.7 6.9 6.8 6.9 7.0 6.9 6.6 6.5 6.2 6.3 6.3 6.3 6.1 6.0 5.9 5.7 5.8 5.8 5.8
6.2 6.2 6.2 6.1 6.2 6.2 6.1 6.1 6.1 5.8 5.9 5.6 5.5 5.5 5.5 5.6 5.7 5.6 5.0 4.9 4.9 5.2 5.7 6.5 6.5 6.5 6.7 6.7 6.6 6.3 6.5 6.5 6.4 6.5 5.9 6.4 6.1 6.0 5.9 5.9 5.8 6.1 5.7
6.3 6.4 6.4 6.2 6.3 6.4 6.4 6.4 6.2 5.9 5.7 5.6 5.6 5.7 5.7 5.7 5.6 5.5 5.4 5.4 5.3 5.3 5.4 5.9 6.2 6.4 6.8 6.6 6.7 6.4 6.1 6.1 6.2 6.4 5.8 6.0 6.0 5.7 5.7 5.7 5.8 5.5 5.4
6.4 6.5 6.4 6.5 6.5 6.3 6.3 6.2 6.0 5.8 5.7 5.7 5.5 5.6 5.7 5.6 5.6 5.5 5.5 5.4 5.5 5.6 5.5 5.5 5.9 6.2 6.5 6.2 6.5 6.6 6.8 6.5 6.4 6.2 6.1 5.8 5.6 5.2 5.4 5.6 5.7 5.6 5.5
6.4 6.3 6.5 6.5 6.4 6.3 6.0 6.0 6.0 5.8 5.7 5.7 5.7 5.6 5.7 5.9 5.8 5.7 5.6 5.5 5.5 5.6 5.5 5.7 5.9 6.1 6.6 6.2 6.1 6.6 6.1 6.6 6.3 6.1 5.9 5.6 5.4 5.2 5.2 5.3 5.7 5.7 5.8
6.4 6.4 6.5 6.3 6.2 6.2 6.3 6.2 6.0 5.8 5.7 5.6 5.6 5.7 5.6 5.7 5.8 5.8 5.7 5.6 5.5 5.4 5.4 5.6 5.4 5.6 5.9 5.8 5.9 6.0 5.9 6.2 6.2 5.8 5.6 5.4 5.6 5.8 5.9 5.7 5.7 5.8 5.6
6.4 6.2 6.2 6.3 6.5 6.5 6.4 6.2 6.0 5.7 5.6 5.6 5.6 5.6 5.7 5.9 5.8 5.7 5.6 5.4 5.2 5.2 5.2 5.3 5.4 5.6 5.7 5.9 5.8 5.8 5.7 5.8 5.9 5.8 5.7 5.8 5.8 5.7 5.6 5.4 5.3 5.3 5.2
6.0 6.3 6.5 6.6 6.6 6.6 6.6 6.6 6.2 5.9 5.9 5.7 5.6 5.6 5.9 5.9 5.8 5.8 5.8 5.7 5.7 5.8 5.8 5.9 5.9 6.0 6.1 6.2 6.0 5.9 6.1 6.2 6.1 6.1 5.8 5.4 5.4 5.4 5.4 5.3 5.2 5.4 5.4
6.2 6.5 6.5 6.3 6.5 6.6 6.5 6.4 6.2 6.0 5.9 5.7 5.7 5.7 5.8 5.8 5.9 5.9 5.9 6.0 6.0 6.1 6.2 6.2 6.1 6.1 6.1 6.2 6.1 6.2 6.1 6.0 6.0 6.0 5.7 5.6 5.5 5.3 5.3 5.2 5.4 5.5 5.5
6.3 6.4 6.2 6.2 6.4 6.5 6.4 6.3 6.1 6.0 5.9 5.8 5.7 5.7 5.7 5.8 5.9 6.0 6.0 6.1 6.1 6.2 6.3 6.3 6.4 6.5 6.7 6.7 6.7 6.6 6.5 6.3 6.1 5.9 5.6 5.4 5.3 5.2 5.2 5.3 5.4 5.3 5.3
6.2 6.1 6.1 6.2 6.3 6.4 6.3 6.2 6.2 6.0 5.9 5.9 5.8 5.7 5.7 5.8 5.8 5.9 6.1 6.2 6.3 6.4 6.5 6.6 6.7 6.7 6.7 6.7 6.6 6.5 6.4 6.1 5.8 5.5 5.3 5.1 5.0 5.1 5.1 5.2 5.4 5.6 6.1
6.0 5.9 6.0 6.1 6.2 6.3 6.3 6.2 6.1 6.0 5.9 5.9 5.8 5.8 5.8 5.8 5.9 5.9 6.1 6.2 6.3 6.4 6.5 6.6 6.7 6.7 6.7 6.6 6.6 6.4 6.2 5.9 5.6 5.3 5.1 4.9 4.7 4.8 5.1 5.6 6.0 6.5 6.6
5.8 5.9 5.9 6.0 6.1 6.1 6.1 6.1 6.0 5.9 6.0 6.0 5.9 5.8 5.8 5.8 5.8 5.8 5.9 6.1 6.2 6.3 6.3 6.4 6.4 6.4 6.4 6.4 6.3 6.1 5.8 5.5 5.2 4.9 4.8 4.7 4.7 5.0 5.4 5.9 6.4 6.7 6.6
5.7 5.8 5.9 5.9 5.9 6.0 6.0 6.0 5.9 5.9 6.0 5.9 5.8 5.8 5.9 5.8 5.8 5.9 6.0 6.1 6.1 6.2 6.3 6.3 6.3 6.3 6.3 6.3 6.1 5.8 5.5 5.2 5.0 4.7 4.7 4.7 5.0 5.4 5.6 5.8 6.3 6.5 6.5
5.4 5.7 5.8 5.7 5.6 5.8 5.8 5.8 5.9 5.9 5.9 5.9 5.8 5.7 5.8 5.7 5.8 5.9 5.9 6.0 6.2 6.2 6.2 6.2 6.1 6.1 6.1 6.0 5.8 5.6 5.3 5.1 4.7 4.6 4.5 4.8 5.1 5.3 5.5 5.8 6.1 6.3 6.3
5.0 5.3 5.6 5.6 5.5 5.6 5.7 5.8 5.8 5.8 5.8 5.8 5.8 5.7 5.7 5.7 5.8 5.9 5.9 6.0 6.1 6.1 6.1 6.1 6.1 6.1 5.9 5.8 5.6 5.4 5.1 5.0 4.7 4.6 4.6 5.1 5.3 5.4 5.6 5.9 6.1 6.3 6.4
5.0 5.1 5.3 5.5 5.6 5.6 5.6 5.6 5.6 5.8 5.8 5.7 5.7 5.6 5.6 5.7 5.8 5.9 6.1 6.2 6.1 6.1 6.0 6.0 5.9 5.9 5.7 5.6 5.4 5.2 5.0 4.9 4.8 4.7 5.0 5.3 5.2 5.4 5.6 5.8 6.1 6.4 6.5
5.1 5.2 5.3 5.5 5.7 5.7 5.7 5.6 5.7 6.0 5.8 5.7 5.6 5.6 5.7 5.7 5.8 6.0 6.1 6.1 6.0 6.0 5.9 5.9 5.8 5.7 5.6 5.4 5.2 5.2 5.0 4.8 4.7 4.8 5.2 5.2 5.1 5.3 5.4 5.6 6.1 6.4 6.7
5.4 5.5 5.5 5.6 5.6 5.7 5.7 5.6 5.6 5.6 5.6 5.6 5.7 5.7 5.6 5.8 5.9 6.0 6.0 6.0 5.9 5.9 5.8 5.7 5.7 5.6 5.5 5.3 5.2 5.0 4.9 4.7 4.6 4.9 5.2 5.1 5.0 5.1 5.3 5.8 6.2 6.6 7.0
5.6 5.5 5.7 5.7 5.7 5.4 5.6 5.6 5.5 5.4 5.4 5.4 5.6 5.7 5.7 5.7 5.8 5.8 5.8 5.8 5.8 5.8 5.7 5.6 5.5 5.4 5.2 5.0 5.0 4.9 4.8 4.6 4.5 4.8 5.0 4.9 4.9 5.0 5.4 5.8 6.1 6.4 6.6
5.4 5.6 5.8 5.8 5.8 5.7 5.2 5.4 5.4 5.3 5.2 5.4 5.5 5.6 5.6 5.6 5.7 5.7 5.7 5.7 5.7 5.7 5.5 5.4 5.3 5.2 5.0 4.9 4.8 4.7 4.6 4.4 4.6 4.9 4.9 4.9 4.9 5.1 5.4 5.7 5.9 6.2 6.4
5.8 5.9 5.9 5.8 5.7 5.7 4.9 4.8 5.3 5.3 5.2 5.2 5.2 5.4 5.4 5.5 5.6 5.6 5.6 5.6 5.5 5.4 5.3 5.2 5.1 5.0 4.9 4.8 4.7 4.6 4.5 4.4 4.7 4.8 4.9 4.9 5.0 5.1 5.3 5.6 5.7 5.9 6.1
5.8 5.8 5.8 5.8 5.7 5.7 5.2 4.6 5.1 5.2 5.2 5.0 5.1 5.3 5.3 5.4 5.4 5.5 5.6 5.6 5.4 5.3 5.2 5.1 5.1 5.0 4.9 4.7 4.6 4.4 4.3 4.5 4.8 4.8 4.9 5.0 5.1 5.2 5.3 5.6 5.7 5.8 5.8
5.9 6.0 5.8 5.6 5.5 5.5 5.1 4.4 4.9 5.0 5.0 4.9 5.0 5.1 5.2 5.3 5.3 5.4 5.5 5.4 5.2 5.1 5.0 5.1 5.1 5.1 4.9 4.7 4.6 4.5 4.4 4.7 4.8 4.9 4.9 5.1 5.3 5.4 5.5 5.7 5.9 5.9 5.9
6.0 5.9 5.7 5.6 5.5 5.4 4.4 4.4 4.7 4.6 4.7 4.5 4.9 4.9 5.0 5.1 5.1 5.3 5.4 5.3 5.2 5.1 5.1 5.2 5.2 5.1 4.9 4.8 4.6 4.5 4.7 4.9 4.9 4.8 4.9 5.1 5.3 5.6 5.7 5.8 5.8 5.8 5.8
Wind_Speed
6 6 6 6 6 6 7 6 5 6 6 7 6 6 6 6 6 5 4 3 3 2 2 3 4 3 3 2 2 3 2 2 7 1 1 1 2 4 9 6 7 8 7
5 5 6 6 6 7 8 6 7 7 8 7 8 8 9 9 8 7 6 6 6 3 2 4 5 4 5 4 3 4 3 2 2 3 1 3 2 4 2 3 5 3 6
5 5 5 6 7 7 7 6 6 6 6 7 7 7 7 7 8 7 6 5 6 6 6 5 4 3 1 1 1 3 2 2 1 2 3 1 1 2 2 2 3 5 11
5 5 6 6 7 6 6 6 6 6 6 6 5 6 6 7 8 7 7 6 7 6 6 5 4 2 2 2 3 2 2 3 2 2 2 2 1 2 1 2 2 3 4
4 5 6 6 5 6 7 7 8 7 6 6 6 7 7 7 5 6 6 6 6 7 7 6 4 6 7 5 2 2 2 2 2 2 2 1 2 2 2 2 3 1 2
5 5 5 7 8 7 7 7 7 8 7 7 7 8 7 7 13 12 9 7 7 7 6 7 8 12 10 9 8 5 3 2 1 1 1 1 1 2 1 2 2 2 1
5 5 6 6 6 6 7 8 7 6 7 8 8 8 8 8 14 14 13 7 7 7 6 5 5 5 8 7 12 10 7 2 1 1 1 1 1 0 2 1 2 2 3
6 6 6 6 6 7 7 6 5 4 6 5 7 7 6 8 14 14 14 5 5 6 5 4 5 3 3 4 3 1 2 3 3 1 2 2 2 3 3 4 3 2 2
5 5 6 6 5 5 6 5 5 6 7 5 4 5 6 5 12 13 9 5 4 3 2 2 2 2 1 3 2 3 3 3 7 4 2 5 7 9 6 2 1 2 2
5 6 6 4 4 5 5 5 5 5 5 5 5 4 6 4 9 8 5 2 2 1 2 3 6 4 6 6 5 4 3 2 3 4 4 5 6 7 8 3 3 3 2
5 6 5 5 5 5 4 4 4 3 3 5 4 1 3 2 6 10 9 3 2 2 3 3 3 5 5 5 4 1 3 2 3 3 3 3 3 3 3 3 6 3 3
5 5 5 5 4 5 6 3 1 3 4 3 3 2 2 3 5 6 6 6 6 2 2 1 3 5 5 6 5 7 6 4 2 3 2 2 2 2 2 2 3 6 10
5 5 4 4 4 4 4 4 2 3 3 2 2 1 2 2 3 6 6 5 5 2 1 4 3 5 6 4 6 6 5 1 2 1 2 2 2 3 4 3 6 10 12
6 6 5 5 4 3 3 2 3 2 2 2 2 1 1 1 1 2 2 3 5 3 4 4 6 7 6 5 4 4 2 2 2 2 2 2 2 2 2 1 1 2 2
6 5 5 3 4 4 2 3 3 1 2 3 2 2 1 1 2 2 3 2 2 4 3 2 3 2 2 3 3 3 3 3 1 2 1 2 5 5 5 4 3 4 5
6 5 4 4 4 3 4 1 3 4 4 4 5 3 1 3 4 6 7 6 7 8 1 2 2 1 2 3 3 3 2 3 3 4 3 4 4 4 5 4 3 4 6
6 6 4 5 4 4 3 4 3 2 2 3 3 2 2 3 5 7 7 7 8 9 1 1 2 2 2 2 2 2 2 2 3 3 3 4 4 4 8 5 5 6 6
7 13 5 4 4 4 4 4 3 2 2 2 4 4 4 4 6 7 8 5 3 3 1 2 2 2 2 2 2 2 3 3 3 5 5 6 5 5 6 6 7 7 8
7 5 5 4 4 5 4 3 3 2 2 2 1 2 4 4 7 8 8 2 3 3 3 2 2 3 3 3 3 3 3 3 4 3 3 3 4 3 7 7 8 16 16
6 11 8 4 4 4 4 4 3 3 3 2 2 2 1 2 2 2 3 2 3 3 3 3 3 3 3 3 3 4 4 4 5 4 4 4 4 4 7 8 8 9 9
5 5 11 4 4 4 4 4 4 3 3 3 3 3 6 3 3 3 3 3 3 4 3 3 3 4 3 3 3 4 4 5 5 6 6 6 5 7 7 8 9 9 10
5 5 5 5 4 4 4 4 4 3 3 3 3 2 7 1 3 3 4 4 4 4 4 3 4 4 3 4 4 4 5 6 6 6 6 7 7 8 8 8 9 9 9
5 5 5 4 4 7 4 4 4 4 3 3 3 3 3 3 3 4 4 4 4 3 7 6 4 4 10 12 13 8 6 7 7 7 8 8 8 8 8 9 10 10 10
6 6 6 5 4 4 4 4 4 6 4 3 3 3 4 4 4 4 4 3 3 4 9 9 8 7 10 12 12 14 14 16 15 13 12 9 9 11 9 10 11 13 13
6 7 5 5 5 5 4 4 4 4 3 3 3 3 3 4 4 4 4 4 4 4 5 9 10 12 15 16 17 19 19 23 21 21 16 11 14 16 13 11 14 14 16
6 6 7 4 4 4 4 4 4 4 4 3 3 3 3 4 4 4 4 4 4 5 6 9 12 16 18 17 19 20 21 23 22 24 21 9 11 11 11 13 18 13 17
Wind_Direction
12 355 2 2 11 43 49 17 358 28 25 19 16 31 30 22 10 31 44 36 81 102 43 174 113 120 110 99 95 132 259 226 234 127 128 136 118 154 155 168 164 193 205
357 3 11 21 22 41 50 21 26 41 34 30 27 34 36 29 23 27 32 16 12 21 93 120 130 128 139 142 157 155 175 204 160 155 126 150 149 185 157 154 190 211 232
358 21 25 33 30 31 36 28 37 48 47 42 39 39 38 39 38 29 32 44 49 35 25 27 51 67 27 88 146 151 160 115 73 123 133 122 144 145 148 214 223 237 244
29 39 47 44 36 33 29 26 31 34 51 51 49 52 45 44 41 35 38 38 54 54 56 59 52 55 115 93 77 58 80 96 81 102 81 102 104 118 170 193 220 220 249
45 35 61 62 50 43 39 30 24 17 42 48 52 55 55 58 60 56 54 53 61 59 45 50 59 73 84 93 103 60 57 71 74 73 91 130 178 167 199 190 199 212 264
47 33 60 59 52 51 48 49 49 41 35 48 53 57 51 58 62 70 74 70 67 71 69 50 41 40 55 83 95 102 85 71 61 85 119 158 210 195 194 210 170 112 301
61 57 60 72 76 68 64 55 46 40 45 49 47 52 55 62 69 75 77 69 66 57 49 46 55 46 39 40 37 36 24 8 182 189 185 159 245 145 111 127 193 175 214
67 70 69 72 71 69 69 64 61 51 49 51 49 37 48 67 75 82 81 63 66 62 67 70 67 39 55 77 77 37 290 307 307 308 199 211 185 179 178 183 194 222 286
98 86 81 78 75 80 80 79 77 81 76 54 42 44 46 52 70 74 78 59 56 51 65 61 61 23 334 338 73 358 309 344 350 234 298 303 305 300 267 106 306 84 313
113 98 88 100 103 93 93 88 90 86 86 85 75 25 71 1 61 84 98 100 78 58 350 14 37 39 17 5 65 35 35 345 346 350 345 338 323 308 290 239 168 183 192
124 116 131 124 116 114 112 110 115 110 98 97 94 64 354 44 40 60 65 64 68 64 51 28 354 2 0 355 358 15 253 245 325 325 307 302 306 308 290 253 199 160 171
141 146 153 158 153 149 139 138 149 124 105 111 122 70 6 9 57 46 44 50 59 59 49 359 310 327 324 322 328 295 314 348 328 300 292 294 292 306 291 278 241 218 220
154 151 157 160 167 171 169 177 174 169 133 142 143 119 305 340 2 9 18 19 1 87 248 296 310 313 313 315 306 312 340 349 287 286 300 273 233 252 281 294 302 301 279
179 186 173 158 152 125 101 118 122 127 139 145 131 114 302 12 22 357 17 5 3 353 344 337 314 314 324 324 347 340 320 274 245 244 255 290 301 337 321 291 297 292 281
181 181 174 164 145 125 105 157 140 194 167 161 157 155 145 270 268 312 322 290 277 297 357 351 339 335 345 344 341 342 343 333 325 318 298 309 313 314 310 304 290 294 286
176 177 182 167 177 163 151 96 138 150 123 114 137 151 236 279 317 328 324 319 318 319 34 327 313 311 303 321 319 314 310 326 314 308 299 304 288 280 281 276 262 265 284
176 179 184 174 179 174 187 185 194 262 230 206 204 221 257 284 319 322 319 311 325 325 231 275 255 271 279 287 276 253 259 263 280 282 286 282 272 272 306 290 281 274 277
177 187 179 181 185 187 191 189 176 188 209 272 260 242 265 303 312 310 304 324 323 330 294 285 267 267 269 264 265 257 276 270 276 291 280 284 277 279 289 285 285 281 277
176 176 172 181 186 189 177 170 178 185 209 234 283 300 318 283 307 311 307 214 260 274 280 270 254 255 261 263 265 267 255 268 267 264 270 281 278 255 282 275 278 285 286
175 180 177 172 178 168 175 178 192 203 215 244 263 257 248 343 311 298 295 276 273 270 274 255 261 251 251 253 261 262 270 274 275 272 269 265 261 251 267 271 270 271 270
174 178 182 175 175 183 186 195 201 199 212 234 254 254 263 235 252 268 274 272 269 270 257 254 258 258 249 253 252 259 260 271 268 264 264 268 261 266 263 262 266 267 270
170 180 172 179 175 182 193 192 195 204 215 235 258 267 284 273 262 264 265 267 267 265 251 253 266 255 250 250 253 252 255 267 268 262 258 260 261 264 265 264 266 267 268
168 176 180 173 179 194 200 191 197 206 220 229 245 253 252 255 259 263 267 271 274 263 274 265 260 269 267 261 256 243 253 264 261 254 260 263 262 264 264 266 267 268 265
170 180 183 184 178 188 191 198 208 220 221 222 240 248 254 258 262 266 269 270 273 272 274 270 265 263 276 275 268 257 251 259 262 259 254 260 263 270 264 263 263 263 264
184 194 182 187 190 191 198 205 211 215 227 225 234 243 254 260 264 264 268 267 269 267 263 269 267 269 271 271 273 273 271 280 277 267 256 246 251 255 256 259 262 263 264
175 184 207 182 189 192 197 206 214 214 223 221 229 238 242 252 256 261 271 271 271 273 281 281 280 276 278 282 279 281 288 289 289 286 284 273 268 267 266 263 262 262 266